• In Uzbekistan
  • List of Countries
  • For 7 days
  • Water Temperature
  • Satellite Maps
  • Weather Map
  • Weather Widgets
  • user-avatar
    Login

    Hourly Weather Sukhumi

    Today, 21 October, Sunday

    Time Temperature Precipitation Wind Pressure Humidity
    00:00 +19°C° 0.4 mm 2 mps 754 mmHg 73%
    01:00 +19°C° 0.3 mm 2 mps 754 mmHg 72%
    02:00 +19°C° 0.3 mm 2 mps 754 mmHg 71%
    03:00 +19°C° 0.3 mm 2 mps 754 mmHg 70%
    04:00 +19°C° 0.4 mm 2 mps 754 mmHg 70%
    05:00 +19°C° 0.4 mm 2 mps 754 mmHg 69%
    06:00 +19°C° 0.4 mm 2 mps 753 mmHg 69%
    07:00 +20°C° 0.5 mm 2 mps 754 mmHg 66%
    08:00 +21°C° 0.5 mm 2 mps 754 mmHg 63%
    09:00 +24°C° 0.5 mm 1 mps 754 mmHg 60%
    10:00 +25°C° 0.2 mm 1 mps 754 mmHg 56%
    11:00 +26°C° 0.2 mm 1 mps 753 mmHg 53%
    12:00 +27°C° 0.2 mm 1 mps 753 mmHg 49%
    13:00 +27°C° 0.2 mm 1 mps 753 mmHg 51%
    14:00 +26°C° 0.2 mm 2 mps 753 mmHg 52%
    15:00 +26°C° 0.2 mm 2 mps 753 mmHg 54%
    16:00 +24°C° 0.1 mm 2 mps 753 mmHg 60%
    17:00 +23°C° 0.1 mm 2 mps 753 mmHg 66%
    18:00 +20°C° 0.1 mm 2 mps 753 mmHg 72%
    19:00 +20°C° 0 mm 2 mps 753 mmHg 70%
    20:00 +20°C° 0 mm 2 mps 754 mmHg 68%
    21:00 +20°C° 0 mm 2 mps 754 mmHg 67%
    22:00 +20°C° 0 mm 2 mps 754 mmHg 65%
    23:00 +20°C° 0 mm 2 mps 754 mmHg 63%

    Tomorrow, 22 October, Monday

    Time Temperature Precipitation Wind Pressure Humidity
    00:00 +20°C° 0 mm 2 mps 754 mmHg 60%
    01:00 +20°C° 0.1 mm 2 mps 754 mmHg 61%
    02:00 +20°C° 0.1 mm 2 mps 754 mmHg 62%
    03:00 +21°C° 0.1 mm 1 mps 754 mmHg 63%
    04:00 +20°C° 0.3 mm 1 mps 755 mmHg 66%
    05:00 +20°C° 0.3 mm 1 mps 755 mmHg 69%
    06:00 +20°C° 0.3 mm 1 mps 755 mmHg 72%
    07:00 +20°C° 0.2 mm 1 mps 755 mmHg 71%
    08:00 +20°C° 0.2 mm 2 mps 755 mmHg 70%
    09:00 +20°C° 0.2 mm 2 mps 756 mmHg 69%
    10:00 +21°C° 0.2 mm 2 mps 756 mmHg 69%
    11:00 +21°C° 0.2 mm 2 mps 756 mmHg 68%
    12:00 +23°C° 0.2 mm 2 mps 756 mmHg 68%
    13:00 +23°C° 0.1 mm 2 mps 756 mmHg 67%
    14:00 +23°C° 0.1 mm 2 mps 756 mmHg 67%
    15:00 +23°C° 0.1 mm 1 mps 756 mmHg 66%
    16:00 +22°C° 0 mm 1 mps 756 mmHg 72%
    17:00 +21°C° 0 mm 1 mps 756 mmHg 78%
    18:00 +20°C° 0 mm 1 mps 756 mmHg 84%
    19:00 +19°C° 0 mm 1 mps 756 mmHg 83%
    20:00 +19°C° 0 mm 1 mps 756 mmHg 81%
    21:00 +18°C° 0 mm 2 mps 756 mmHg 80%
    22:00 +17°C° 0 mm 2 mps 756 mmHg 77%
    23:00 +17°C° 0 mm 2 mps 756 mmHg 75%

    Day after tomorrow, 23 October, Tuesday

    Time Temperature Precipitation Wind Pressure Humidity
    00:00 +17°C° 0 mm 2 mps 756 mmHg 73%
    01:00 +17°C° 0 mm 2 mps 756 mmHg 71%
    02:00 +17°C° 0 mm 2 mps 756 mmHg 70%
    03:00 +17°C° 0 mm 2 mps 756 mmHg 69%
    04:00 +17°C° 0 mm 2 mps 756 mmHg 67%
    05:00 +17°C° 0 mm 2 mps 756 mmHg 66%
    06:00 +17°C° 0 mm 2 mps 755 mmHg 65%
    07:00 +18°C° 0.2 mm 2 mps 755 mmHg 61%
    08:00 +21°C° 0.2 mm 1 mps 756 mmHg 58%
    09:00 +22°C° 0.2 mm 1 mps 756 mmHg 54%
    10:00 +23°C° 0.4 mm 1 mps 755 mmHg 54%
    11:00 +24°C° 0.4 mm 1 mps 755 mmHg 54%
    12:00 +24°C° 0.4 mm 2 mps 755 mmHg 54%
    13:00 +24°C° 0.3 mm 2 mps 755 mmHg 56%
    14:00 +24°C° 0.3 mm 2 mps 754 mmHg 59%
    15:00 +24°C° 0.3 mm 2 mps 754 mmHg 61%
    16:00 +21°C° 0.1 mm 2 mps 754 mmHg 67%
    17:00 +20°C° 0.1 mm 2 mps 754 mmHg 73%
    18:00 +18°C° 0.1 mm 2 mps 754 mmHg 78%
    19:00 +18°C° 0 mm 2 mps 754 mmHg 76%
    20:00 +18°C° 0 mm 2 mps 754 mmHg 74%
    21:00 +17°C° 0 mm 2 mps 754 mmHg 72%
    22:00 +17°C° 0 mm 2 mps 753 mmHg 71%
    23:00 +17°C° 0 mm 2 mps 753 mmHg 70%

    24 October, Wednesday

    Time Temperature Precipitation Wind Pressure Humidity
    00:00 +17°C° 0 mm 3 mps 753 mmHg 70%
    01:00 +17°C° 0.1 mm 3 mps 753 mmHg 69%
    02:00 +17°C° 0.1 mm 3 mps 752 mmHg 68%
    03:00 +17°C° 0.1 mm 3 mps 752 mmHg 68%
    04:00 +17°C° 0.2 mm 3 mps 751 mmHg 67%
    05:00 +18°C° 0.2 mm 3 mps 751 mmHg 67%
    06:00 +18°C° 0.2 mm 3 mps 751 mmHg 66%
    07:00 +19°C° 0.2 mm 3 mps 750 mmHg 65%
    08:00 +20°C° 0.2 mm 4 mps 750 mmHg 64%
    09:00 +21°C° 0.2 mm 4 mps 750 mmHg 62%
    10:00 +22°C° 0.1 mm 4 mps 749 mmHg 60%
    11:00 +23°C° 0.1 mm 4 mps 748 mmHg 57%
    12:00 +25°C° 0.1 mm 4 mps 748 mmHg 55%
    13:00 +25°C° 0.1 mm 4 mps 747 mmHg 55%
    14:00 +25°C° 0.1 mm 4 mps 746 mmHg 56%
    15:00 +25°C° 0.1 mm 3 mps 746 mmHg 56%
    16:00 +22°C° 0.1 mm 4 mps 745 mmHg 60%
    17:00 +21°C° 0.1 mm 4 mps 745 mmHg 63%
    18:00 +20°C° 0.1 mm 4 mps 745 mmHg 67%
    19:00 +19°C° 0 mm 4 mps 745 mmHg 65%
    20:00 +19°C° 0 mm 5 mps 744 mmHg 64%
    21:00 +19°C° 0 mm 5 mps 744 mmHg 63%
    22:00 +19°C° 0.3 mm 5 mps 743 mmHg 63%
    23:00 +19°C° 0.3 mm 6 mps 743 mmHg 64%

    25 October, Thursday

    Time Temperature Precipitation Wind Pressure Humidity
    00:00 +19°C° 0.3 mm 6 mps 742 mmHg 64%
    01:00 +19°C° 0.6 mm 6 mps 742 mmHg 68%
    02:00 +19°C° 0.6 mm 6 mps 742 mmHg 71%
    03:00 +19°C° 0.6 mm 6 mps 742 mmHg 74%
    04:00 +19°C° 1.2 mm 6 mps 742 mmHg 76%
    05:00 +17°C° 1.2 mm 6 mps 742 mmHg 78%
    06:00 +17°C° 1.2 mm 6 mps 742 mmHg 81%
    07:00 +17°C° 1.2 mm 6 mps 742 mmHg 80%
    08:00 +19°C° 1.2 mm 6 mps 741 mmHg 80%
    09:00 +19°C° 1.2 mm 6 mps 741 mmHg 80%
    10:00 +19°C° 1.4 mm 5 mps 741 mmHg 78%
    11:00 +20°C° 1.4 mm 4 mps 741 mmHg 76%
    12:00 +20°C° 1.4 mm 4 mps 741 mmHg 73%
    13:00 +20°C° 1.4 mm 4 mps 741 mmHg 75%
    14:00 +20°C° 1.4 mm 4 mps 741 mmHg 77%
    15:00 +20°C° 1.4 mm 5 mps 741 mmHg 80%
    16:00 +19°C° 2.8 mm 5 mps 741 mmHg 84%
    17:00 +17°C° 2.8 mm 5 mps 742 mmHg 88%
    18:00 +17°C° 2.8 mm 4 mps 742 mmHg 92%
    19:00 +16°C° 2.7 mm 5 mps 743 mmHg 93%
    20:00 +15°C° 2.7 mm 6 mps 744 mmHg 94%
    21:00 +15°C° 2.7 mm 6 mps 744 mmHg 95%
    22:00 +14°C° 1.6 mm 6 mps 745 mmHg 94%
    23:00 +13°C° 1.6 mm 6 mps 746 mmHg 93%

    26 October, Friday

    Time Temperature Precipitation Wind Pressure Humidity
    00:00 +13°C° 1.6 mm 6 mps 747 mmHg 92%
    01:00 +12°C° 1 mm 5 mps 747 mmHg 91%
    02:00 +12°C° 1 mm 5 mps 748 mmHg 91%
    03:00 +11°C° 1 mm 4 mps 749 mmHg 90%
    04:00 +11°C° 0.4 mm 4 mps 749 mmHg 89%
    05:00 +11°C° 0.4 mm 3 mps 750 mmHg 88%
    06:00 +10°C° 0.4 mm 3 mps 750 mmHg 88%
    07:00 +10°C° 0.3 mm 2 mps 751 mmHg 86%
    08:00 +12°C° 0.3 mm 2 mps 751 mmHg 84%
    09:00 +12°C° 0.3 mm 2 mps 752 mmHg 81%
    10:00 +12°C° 0.2 mm 2 mps 752 mmHg 78%
    11:00 +13°C° 0.2 mm 1 mps 752 mmHg 75%
    12:00 +13°C° 0.2 mm 1 mps 752 mmHg 72%
    13:00 +13°C° 0.2 mm 1 mps 753 mmHg 71%
    14:00 +13°C° 0.2 mm 1 mps 753 mmHg 71%
    15:00 +13°C° 0.2 mm 1 mps 753 mmHg 71%
    16:00 +12°C° 0.2 mm 2 mps 754 mmHg 73%
    17:00 +10°C° 0.2 mm 2 mps 755 mmHg 75%
    18:00 +9°C° 0.2 mm 2 mps 755 mmHg 77%
    19:00 +9°C° 0.1 mm 2 mps 756 mmHg 76%
    20:00 +8°C° 0.1 mm 2 mps 756 mmHg 74%
    21:00 +7°C° 0.1 mm 2 mps 757 mmHg 73%
    22:00 +7°C° 0 mm 2 mps 757 mmHg 72%
    23:00 +7°C° 0 mm 2 mps 757 mmHg 71%
    Show more